Etusivu
METAR-TAF:

METAR-TAF

Lentoasemat :

Salt Point, Louisiana, Yhdysvallat

Leveyspiiri: 29-33-44N, Pituuspiiri: 091-31-32W, korkeus merenpinnasta: 0 m

Tämänhetkinen sää

Tämä raportti tehtiin 18 minuuttia sitten, kello 09.59 UTC
Tuuli 6 kn eri suunnista
Lämpötila 23°C
Kosteus 65%
Ilmanpaine 1013 hPa

METAR: KP92 140959Z AUTO VRB06KT 23/16 A2990 RMK AO1 SLP123 T02330161

Aika: 05:17 (10:17 UTC)


TAF: puuttuu

Säähavainnot ja -ennusteet yli 4000 lentoasemalta (METAR- ja TAF-raportit).

Käytössä olevat sääasemat on merkitty karttaan keltaisilla ja punaisilla pisteillä.

Aseta hiiri pisteen päälle nähdäksesi sääaseman nimen.

Klikkaa sitten nähdäksesi säähavainnot ja -ennusteet.

Kartan vaihtaminen: klikkaa mustalla rastilla varustettuja vihreitä pisteitä, niin voit zoomata sisään; viivalla varustettua vihreää pistettä, niin voit zoomata ulos tai vihreitä nuolia, niin pääset viereisille kartoille.


METAR-TAF: